Time,TemperatureF,DewpointF,PressureIn,WindDirection,WindDirectionDegrees,WindSpeedMPH,WindSpeedGustMPH,Humidity,HourlyPrecipIn,Conditions,Clouds,dailyrainin,SoftwareType,DateUTC
2013-05-17 00:00:00,73.8,70.9,29.75,ESE,117,1.0,1.0,91,0.00,,,0.02,meteohub,2013-05-17 05:00:00,
2013-05-17 00:06:00,73.8,70.9,29.75,ESE,117,2.0,2.0,91,0.00,,,0.02,meteohub,2013-05-17 05:06:00,
2013-05-17 00:11:00,73.8,70.9,29.76,ESE,117,1.0,1.0,91,0.00,,,0.02,meteohub,2013-05-17 05:11:00,
2013-05-17 00:16:00,73.8,70.9,29.76,ESE,117,0.0,2.0,91,0.00,,,0.02,meteohub,2013-05-17 05:16:00,
2013-05-17 00:22:00,73.6,70.7,29.76,ENE,74,2.0,2.0,91,0.00,,,0.02,meteohub,2013-05-17 05:22:00,
2013-05-17 00:27:00,73.8,70.9,29.76,East,93,1.0,2.0,91,0.00,,,0.02,meteohub,2013-05-17 05:27:00,
2013-05-17 00:32:00,73.8,70.9,29.76,ESE,103,0.0,2.0,91,0.00,,,0.00,meteohub,2013-05-17 05:32:00,
2013-05-17 00:37:00,73.8,70.9,29.76,ENE,76,0.0,2.0,91,0.00,,,0.00,meteohub,2013-05-17 05:37:00,
2013-05-17 00:42:00,73.8,70.9,29.75,ENE,76,0.0,5.0,91,0.00,,,0.00,meteohub,2013-05-17 05:42:00,
2013-05-17 00:48:00,73.8,70.9,29.75,East,82,5.0,5.0,91,0.00,,,0.00,meteohub,2013-05-17 05:48:00,
2013-05-17 00:53:00,73.6,70.7,29.75,East,82,0.0,5.0,91,0.00,,,0.00,meteohub,2013-05-17 05:53:00,
2013-05-17 00:58:00,73.6,70.7,29.75,East,82,0.0,5.0,91,0.00,,,0.00,meteohub,2013-05-17 05:58:00,
2013-05-17 01:04:00,73.6,70.7,29.75,East,82,0.0,5.0,91,0.00,,,0.00,meteohub,2013-05-17 06:04:00,
2013-05-17 01:09:00,73.6,70.7,29.75,East,82,0.0,5.0,91,0.00,,,0.00,meteohub,2013-05-17 06:09:00,
2013-05-17 01:15:00,73.6,70.7,29.75,East,82,0.0,3.0,91,0.00,,,0.00,meteohub,2013-05-17 06:15:00,
2013-05-17 01:20:00,73.4,70.5,29.76,East,82,1.0,3.0,91,0.00,,,0.00,meteohub,2013-05-17 06:20:00,
2013-05-17 01:25:00,73.2,70.5,29.76,East,82,1.0,3.0,91,0.00,,,0.00,meteohub,2013-05-17 06:25:00,
2013-05-17 01:31:00,73.0,70.5,29.76,East,82,0.0,3.0,92,0.00,,,0.00,meteohub,2013-05-17 06:31:00,
2013-05-17 01:36:00,73.0,70.5,29.76,East,82,0.0,3.0,92,0.00,,,0.00,meteohub,2013-05-17 06:36:00,
2013-05-17 01:41:00,72.9,70.3,29.75,East,82,0.0,3.0,92,0.00,,,0.00,meteohub,2013-05-17 06:41:00,
2013-05-17 01:47:00,72.9,70.3,29.75,East,82,0.0,3.0,92,0.00,,,0.00,meteohub,2013-05-17 06:47:00,
2013-05-17 01:52:00,72.9,70.3,29.75,East,82,0.0,3.0,92,0.00,,,0.00,meteohub,2013-05-17 06:52:00,
2013-05-17 01:57:00,73.0,70.9,29.75,SSE,161,2.0,3.0,93,0.00,,,0.00,meteohub,2013-05-17 06:57:00,
2013-05-17 02:02:00,73.0,70.5,29.75,SSE,156,1.0,3.0,92,0.00,,,0.00,meteohub,2013-05-17 07:02:00,
2013-05-17 02:07:00,73.2,70.7,29.75,South,185,1.0,3.0,92,0.00,,,0.00,meteohub,2013-05-17 07:07:00,
2013-05-17 02:12:00,73.2,70.7,29.75,SSE,165,3.0,5.0,92,0.00,,,0.00,meteohub,2013-05-17 07:12:00,
2013-05-17 02:17:00,73.2,70.7,29.75,South,169,2.0,5.0,92,0.00,,,0.00,meteohub,2013-05-17 07:17:00,
2013-05-17 02:22:00,73.2,70.7,29.75,ESE,109,0.0,5.0,92,0.00,,,0.00,meteohub,2013-05-17 07:22:00,
2013-05-17 02:28:00,73.2,70.7,29.75,SE,136,3.0,5.0,92,0.00,,,0.00,meteohub,2013-05-17 07:28:00,
2013-05-17 02:33:00,73.2,70.7,29.75,SSE,155,3.0,4.0,92,0.00,,,0.00,meteohub,2013-05-17 07:33:00,
2013-05-17 02:38:00,73.2,70.7,29.75,SSE,155,1.0,4.0,92,0.00,,,0.00,meteohub,2013-05-17 07:38:00,
2013-05-17 02:43:00,73.0,70.5,29.75,SSE,165,3.0,4.0,92,0.00,,,0.00,meteohub,2013-05-17 07:43:00,
2013-05-17 02:49:00,73.0,70.5,29.75,SSE,160,2.0,4.0,92,0.00,,,0.00,meteohub,2013-05-17 07:49:00,
2013-05-17 02:54:00,73.0,70.5,29.75,SSW,199,6.0,8.0,92,0.00,,,0.00,meteohub,2013-05-17 07:54:00,
2013-05-17 02:59:00,73.0,70.5,29.75,South,171,0.0,8.0,92,0.00,,,0.00,meteohub,2013-05-17 07:59:00,
2013-05-17 03:05:00,72.9,70.3,29.75,SSE,149,2.0,8.0,92,0.00,,,0.00,meteohub,2013-05-17 08:05:00,
2013-05-17 03:10:00,72.9,70.3,29.75,South,173,3.0,8.0,92,0.00,,,0.00,meteohub,2013-05-17 08:10:00,
2013-05-17 03:15:00,72.7,70.5,29.75,South,178,4.0,7.0,93,0.00,,,0.00,meteohub,2013-05-17 08:15:00,
2013-05-17 03:20:00,72.9,70.7,29.75,SSE,168,2.0,7.0,93,0.00,,,0.00,meteohub,2013-05-17 08:20:00,
2013-05-17 03:26:00,72.9,70.7,29.75,South,183,5.0,7.0,93,0.00,,,0.00,meteohub,2013-05-17 08:26:00,
2013-05-17 03:31:00,72.9,70.7,29.75,South,178,4.0,11.0,93,0.00,,,0.00,meteohub,2013-05-17 08:31:00,
2013-05-17 03:36:00,72.9,70.7,29.75,South,187,5.0,11.0,93,0.00,,,0.00,meteohub,2013-05-17 08:36:00,
2013-05-17 03:42:00,72.9,70.7,29.75,South,184,3.0,11.0,93,0.00,,,0.00,meteohub,2013-05-17 08:42:00,
2013-05-17 03:47:00,72.7,70.5,29.75,South,171,2.0,11.0,93,0.00,,,0.00,meteohub,2013-05-17 08:47:00,
2013-05-17 03:52:00,72.7,70.5,29.75,SSE,165,2.0,8.0,93,0.00,,,0.00,meteohub,2013-05-17 08:52:00,
2013-05-17 03:57:00,72.7,70.5,29.75,SSW,196,4.0,8.0,93,0.00,,,0.00,meteohub,2013-05-17 08:57:00,
2013-05-17 04:02:00,72.7,70.9,29.75,SSE,165,2.0,8.0,94,0.00,,,0.00,meteohub,2013-05-17 09:02:00,
2013-05-17 04:07:00,72.7,70.9,29.75,South,182,3.0,8.0,94,0.00,,,0.00,meteohub,2013-05-17 09:07:00,
2013-05-17 04:12:00,72.7,70.9,29.75,South,188,1.0,8.0,94,0.00,,,0.00,meteohub,2013-05-17 09:12:00,
2013-05-17 04:17:00,72.7,70.9,29.75,SSE,167,2.0,7.0,94,0.00,,,0.00,meteohub,2013-05-17 09:17:00,
2013-05-17 04:22:00,72.7,70.9,29.75,SSE,157,4.0,7.0,94,0.00,,,0.00,meteohub,2013-05-17 09:22:00,
2013-05-17 04:28:00,72.7,70.9,29.76,SSW,196,5.0,7.0,94,0.00,,,0.00,meteohub,2013-05-17 09:28:00,
2013-05-17 04:33:00,72.7,70.9,29.76,South,182,5.0,8.0,94,0.00,,,0.00,meteohub,2013-05-17 09:33:00,
2013-05-17 04:38:00,72.7,70.9,29.77,South,187,4.0,8.0,94,0.00,,,0.00,meteohub,2013-05-17 09:38:00,
2013-05-17 04:43:00,72.7,70.9,29.76,South,184,3.0,8.0,94,0.00,,,0.00,meteohub,2013-05-17 09:43:00,
2013-05-17 04:49:00,72.7,70.9,29.77,South,180,2.0,8.0,94,0.00,,,0.00,meteohub,2013-05-17 09:49:00,
2013-05-17 04:54:00,72.7,71.2,29.76,South,190,4.0,8.0,95,0.00,,,0.00,meteohub,2013-05-17 09:54:00,
2013-05-17 04:59:00,72.7,71.2,29.76,South,185,2.0,9.0,95,0.00,,,0.00,meteohub,2013-05-17 09:59:00,
2013-05-17 05:05:00,72.7,71.2,29.76,South,175,6.0,9.0,95,0.00,,,0.00,meteohub,2013-05-17 10:05:00,
2013-05-17 05:10:00,72.5,71.1,29.76,South,172,2.0,9.0,95,0.00,,,0.00,meteohub,2013-05-17 10:10:00,
2013-05-17 05:15:00,72.3,70.9,29.76,South,179,3.0,9.0,95,0.00,,,0.00,meteohub,2013-05-17 10:15:00,
2013-05-17 05:21:00,72.3,71.1,29.76,SSE,163,1.0,9.0,96,0.00,,,0.00,meteohub,2013-05-17 10:21:00,
2013-05-17 05:26:00,72.3,71.1,29.76,SSE,161,2.0,9.0,96,0.00,,,0.00,meteohub,2013-05-17 10:26:00,
2013-05-17 05:32:00,72.3,71.1,29.76,SSE,166,6.0,6.0,96,0.00,,,0.00,meteohub,2013-05-17 10:32:00,
2013-05-17 05:37:00,72.3,71.1,29.76,South,180,0.0,5.0,96,0.00,,,0.00,meteohub,2013-05-17 10:37:00,
2013-05-17 05:42:00,72.1,70.9,29.76,SSE,148,2.0,5.0,96,0.00,,,0.00,meteohub,2013-05-17 10:42:00,
2013-05-17 05:47:00,72.1,70.9,29.76,SE,134,4.0,5.0,96,0.00,,,0.00,meteohub,2013-05-17 10:47:00,
2013-05-17 05:52:00,72.1,70.9,29.76,SSE,163,2.0,5.0,96,0.00,,,0.00,meteohub,2013-05-17 10:52:00,
2013-05-17 05:57:00,72.1,70.9,29.76,SE,126,3.0,5.0,96,0.00,,,0.00,meteohub,2013-05-17 10:57:00,
2013-05-17 06:03:00,72.1,70.9,29.77,SSE,152,2.0,7.0,96,0.00,,,0.00,meteohub,2013-05-17 11:03:00,
2013-05-17 06:08:00,72.1,70.9,29.77,SE,143,5.0,7.0,96,0.00,,,0.00,meteohub,2013-05-17 11:08:00,
2013-05-17 06:14:00,72.1,70.9,29.77,SE,145,3.0,7.0,96,0.00,,,0.00,meteohub,2013-05-17 11:14:00,
2013-05-17 06:19:00,72.1,70.9,29.77,SSE,159,2.0,7.0,96,0.00,,,0.00,meteohub,2013-05-17 11:19:00,
2013-05-17 06:24:00,72.1,71.2,29.77,SSE,155,2.0,7.0,97,0.00,,,0.00,meteohub,2013-05-17 11:24:00,
2013-05-17 06:30:00,72.1,71.2,29.78,SE,134,0.0,7.0,97,0.00,,,0.00,meteohub,2013-05-17 11:30:00,
2013-05-17 06:35:00,72.3,71.4,29.78,SE,128,0.0,7.0,97,0.00,,,0.00,meteohub,2013-05-17 11:35:00,
2013-05-17 06:41:00,72.3,71.4,29.78,SE,132,0.0,7.0,97,0.00,,,0.00,meteohub,2013-05-17 11:41:00,
2013-05-17 06:46:00,72.3,71.4,29.78,SE,136,0.0,6.0,97,0.00,,,0.00,meteohub,2013-05-17 11:46:00,
2013-05-17 06:52:00,72.3,71.4,29.78,SE,138,2.0,6.0,97,0.00,,,0.00,meteohub,2013-05-17 11:52:00,
2013-05-17 06:57:00,72.3,71.4,29.79,SE,136,0.0,6.0,97,0.00,,,0.00,meteohub,2013-05-17 11:57:00,
2013-05-17 07:02:00,72.3,71.4,29.79,SE,136,1.0,6.0,97,0.00,,,0.00,meteohub,2013-05-17 12:02:00,
2013-05-17 07:07:00,72.3,71.4,29.80,SE,132,3.0,6.0,97,0.00,,,0.00,meteohub,2013-05-17 12:07:00,
2013-05-17 07:12:00,72.3,71.4,29.80,SE,137,0.0,6.0,97,0.00,,,0.00,meteohub,2013-05-17 12:12:00,
2013-05-17 07:17:00,72.5,71.6,29.80,ESE,113,0.0,6.0,97,0.00,,,0.00,meteohub,2013-05-17 12:17:00,
2013-05-17 07:22:00,72.3,71.4,29.80,ESE,120,3.0,6.0,97,0.00,,,0.00,meteohub,2013-05-17 12:22:00,
2013-05-17 07:27:00,72.3,71.4,29.80,SE,126,0.0,4.0,97,0.00,,,0.00,meteohub,2013-05-17 12:27:00,
2013-05-17 07:32:00,72.5,71.6,29.80,ESE,111,0.0,4.0,97,0.00,,,0.00,meteohub,2013-05-17 12:32:00,
2013-05-17 07:37:00,72.5,71.6,29.80,ESE,112,0.0,4.0,97,0.00,,,0.00,meteohub,2013-05-17 12:37:00,
2013-05-17 07:42:00,72.7,71.8,29.80,SE,139,4.0,4.0,97,0.00,,,0.00,meteohub,2013-05-17 12:42:00,
2013-05-17 07:47:00,72.7,71.8,29.80,SSE,148,3.0,4.0,97,0.00,,,0.00,meteohub,2013-05-17 12:47:00,
2013-05-17 07:52:00,72.7,71.8,29.80,South,171,0.0,4.0,97,0.00,,,0.00,meteohub,2013-05-17 12:52:00,
2013-05-17 07:57:00,72.7,71.8,29.80,SE,136,5.0,5.0,97,0.00,,,0.00,meteohub,2013-05-17 12:57:00,
2013-05-17 08:02:00,72.9,72.0,29.80,South,169,5.0,7.0,97,0.00,,,0.00,meteohub,2013-05-17 13:02:00,
2013-05-17 08:07:00,72.9,72.0,29.81,South,175,3.0,7.0,97,0.00,,,0.00,meteohub,2013-05-17 13:07:00,
2013-05-17 08:12:00,72.9,72.0,29.80,South,173,7.0,7.0,97,0.00,,,0.00,meteohub,2013-05-17 13:12:00,
2013-05-17 08:17:00,72.9,72.0,29.80,SSE,167,3.0,7.0,97,0.00,,,0.00,meteohub,2013-05-17 13:17:00,
2013-05-17 08:22:00,73.0,72.1,29.80,South,182,2.0,7.0,97,0.00,,,0.00,meteohub,2013-05-17 13:22:00,
2013-05-17 08:28:00,73.2,72.3,29.80,SSE,150,6.0,7.0,97,0.00,,,0.00,meteohub,2013-05-17 13:28:00,
2013-05-17 08:33:00,73.4,72.1,29.80,SE,146,3.0,7.0,96,0.00,,,0.00,meteohub,2013-05-17 13:33:00,
2013-05-17 08:39:00,73.8,72.5,29.80,ESE,117,1.0,7.0,96,0.00,,,0.00,meteohub,2013-05-17 13:39:00,
2013-05-17 08:44:00,74.3,73.0,29.80,SSE,159,4.0,8.0,96,0.00,,,0.00,meteohub,2013-05-17 13:44:00,
2013-05-17 08:50:00,74.7,73.2,29.80,South,171,3.0,8.0,95,0.00,,,0.00,meteohub,2013-05-17 13:50:00,
2013-05-17 08:55:00,74.8,73.2,29.81,SE,135,3.0,8.0,95,0.00,,,0.00,meteohub,2013-05-17 13:55:00,
2013-05-17 09:00:00,74.7,72.9,29.81,SSE,165,5.0,8.0,94,0.00,,,0.00,meteohub,2013-05-17 14:00:00,
2013-05-17 09:06:00,74.5,72.7,29.81,SSE,161,8.0,8.0,94,0.00,,,0.00,meteohub,2013-05-17 14:06:00,
2013-05-17 09:11:00,74.7,72.9,29.81,SSE,158,5.0,8.0,94,0.00,,,0.00,meteohub,2013-05-17 14:11:00,
2013-05-17 09:16:00,75.0,73.4,29.80,SSE,165,4.0,11.0,95,0.00,,,0.00,meteohub,2013-05-17 14:16:00,
2013-05-17 09:22:00,75.4,73.2,29.80,SSE,159,3.0,11.0,93,0.00,,,0.00,meteohub,2013-05-17 14:22:00,
2013-05-17 09:27:00,75.7,73.6,29.80,SE,142,8.0,11.0,93,0.00,,,0.00,meteohub,2013-05-17 14:27:00,
2013-05-17 09:32:00,75.9,73.8,29.80,South,172,6.0,11.0,93,0.00,,,0.00,meteohub,2013-05-17 14:32:00,
2013-05-17 09:37:00,76.6,74.1,29.79,SSW,199,6.0,11.0,92,0.00,,,0.00,meteohub,2013-05-17 14:37:00,
2013-05-17 09:42:00,76.8,73.6,29.79,South,173,3.0,11.0,90,0.00,,,0.00,meteohub,2013-05-17 14:42:00,
2013-05-17 09:47:00,76.8,73.6,29.79,SE,128,4.0,11.0,90,0.00,,,0.00,meteohub,2013-05-17 14:47:00,
2013-05-17 09:53:00,77.5,74.3,29.80,South,184,4.0,13.0,90,0.00,,,0.00,meteohub,2013-05-17 14:53:00,
2013-05-17 09:58:00,77.4,73.9,29.79,SSE,155,2.0,13.0,89,0.00,,,0.00,meteohub,2013-05-17 14:58:00,
2013-05-17 10:03:00,77.2,73.8,29.79,SE,140,4.0,13.0,89,0.00,,,0.00,meteohub,2013-05-17 15:03:00,
2013-05-17 10:08:00,77.4,73.9,29.79,SSW,203,6.0,13.0,89,0.00,,,0.00,meteohub,2013-05-17 15:08:00,
2013-05-17 10:14:00,77.7,73.6,29.79,South,186,11.0,13.0,87,0.00,,,0.00,meteohub,2013-05-17 15:14:00,
2013-05-17 10:19:00,78.1,73.9,29.79,South,182,7.0,13.0,87,0.00,,,0.00,meteohub,2013-05-17 15:19:00,
2013-05-17 10:25:00,78.3,74.1,29.79,South,180,9.0,13.0,87,0.00,,,0.00,meteohub,2013-05-17 15:25:00,
2013-05-17 10:30:00,79.0,74.1,29.79,South,171,15.0,15.0,85,0.00,,,0.00,meteohub,2013-05-17 15:30:00,
2013-05-17 10:35:00,79.2,73.6,29.78,South,185,8.0,14.0,83,0.00,,,0.00,meteohub,2013-05-17 15:35:00,
2013-05-17 10:40:00,79.5,73.9,29.78,South,178,10.0,14.0,83,0.00,,,0.00,meteohub,2013-05-17 15:40:00,
2013-05-17 10:46:00,79.9,73.9,29.78,SW,216,11.0,14.0,82,0.00,,,0.00,meteohub,2013-05-17 15:46:00,
2013-05-17 10:51:00,80.1,74.1,29.78,SSW,202,7.0,14.0,82,0.00,,,0.00,meteohub,2013-05-17 15:51:00,
2013-05-17 10:57:00,80.1,74.5,29.78,SSE,161,13.0,14.0,83,0.00,,,0.00,meteohub,2013-05-17 15:57:00,
2013-05-17 11:02:00,80.1,74.1,29.78,SSW,211,10.0,19.0,82,0.00,,,0.00,meteohub,2013-05-17 16:02:00,
2013-05-17 11:07:00,80.1,74.5,29.78,South,181,6.0,19.0,83,0.00,,,0.00,meteohub,2013-05-17 16:07:00,
2013-05-17 11:12:00,79.9,74.3,29.79,SSW,211,4.0,19.0,83,0.00,,,0.00,meteohub,2013-05-17 16:12:00,
2013-05-17 11:17:00,80.1,74.1,29.79,SSW,205,8.0,19.0,82,0.00,,,0.00,meteohub,2013-05-17 16:17:00,
2013-05-17 11:22:00,80.2,74.3,29.79,SSW,197,5.0,19.0,82,0.00,,,0.00,meteohub,2013-05-17 16:22:00,
2013-05-17 11:27:00,81.1,74.3,29.79,South,188,7.0,19.0,80,0.00,,,0.00,meteohub,2013-05-17 16:27:00,
2013-05-17 11:32:00,81.3,74.5,29.79,South,177,8.0,19.0,80,0.00,,,0.00,meteohub,2013-05-17 16:32:00,
2013-05-17 11:37:00,82.6,75.4,29.80,SSW,200,7.0,15.0,79,0.00,,,0.00,meteohub,2013-05-17 16:37:00,
2013-05-17 11:42:00,82.8,74.8,29.79,South,186,7.0,15.0,77,0.00,,,0.00,meteohub,2013-05-17 16:42:00,
2013-05-17 11:48:00,83.5,75.6,29.79,South,179,12.0,15.0,77,0.00,,,0.00,meteohub,2013-05-17 16:48:00,
2013-05-17 11:53:00,83.8,75.4,29.79,SSW,192,8.0,15.0,76,0.00,,,0.00,meteohub,2013-05-17 16:53:00,
2013-05-17 11:58:00,84.6,75.7,29.79,SSW,192,7.0,15.0,75,0.00,,,0.00,meteohub,2013-05-17 16:58:00,
2013-05-17 12:04:00,84.7,75.6,29.79,SSW,207,7.0,15.0,74,0.00,,,0.00,meteohub,2013-05-17 17:04:00,
2013-05-17 12:09:00,84.7,75.2,29.79,SSW,200,2.0,15.0,73,0.00,,,0.00,meteohub,2013-05-17 17:09:00,
2013-05-17 12:15:00,84.9,75.2,29.79,SSW,213,9.0,15.0,73,0.00,,,0.00,meteohub,2013-05-17 17:15:00,
2013-05-17 12:20:00,85.1,75.9,29.79,SSW,211,3.0,15.0,74,0.00,,,0.00,meteohub,2013-05-17 17:20:00,
2013-05-17 12:25:00,85.5,76.6,29.78,SW,214,9.0,15.0,75,0.00,,,0.00,meteohub,2013-05-17 17:25:00,
2013-05-17 12:31:00,86.0,76.3,29.78,SSW,194,6.0,15.0,73,0.00,,,0.00,meteohub,2013-05-17 17:31:00,
2013-05-17 12:36:00,86.4,76.3,29.78,SW,223,1.0,15.0,72,0.00,,,0.00,meteohub,2013-05-17 17:36:00,
2013-05-17 12:42:00,86.4,76.6,29.78,SSE,153,5.0,15.0,73,0.00,,,0.00,meteohub,2013-05-17 17:42:00,
2013-05-17 12:47:00,86.7,77.0,29.78,SW,222,3.0,15.0,73,0.00,,,0.00,meteohub,2013-05-17 17:47:00,
2013-05-17 12:52:00,86.9,76.8,29.78,South,175,7.0,13.0,72,0.00,,,0.00,meteohub,2013-05-17 17:52:00,
2013-05-17 12:57:00,87.1,77.4,29.78,South,186,0.0,13.0,73,0.00,,,0.00,meteohub,2013-05-17 17:57:00,
2013-05-17 13:03:00,87.4,77.7,29.78,SSW,205,7.0,13.0,73,0.00,,,0.00,meteohub,2013-05-17 18:03:00,
2013-05-17 13:08:00,87.4,77.4,29.78,SSW,203,5.0,13.0,72,0.00,,,0.00,meteohub,2013-05-17 18:08:00,
2013-05-17 13:13:00,87.6,75.4,29.78,South,190,10.0,13.0,67,0.00,,,0.00,meteohub,2013-05-17 18:13:00,
2013-05-17 13:19:00,88.3,76.5,29.78,SSW,197,7.0,13.0,68,0.00,,,0.00,meteohub,2013-05-17 18:19:00,
2013-05-17 13:24:00,88.3,76.5,29.78,South,170,4.0,13.0,68,0.00,,,0.00,meteohub,2013-05-17 18:24:00,
2013-05-17 13:29:00,88.3,75.6,29.77,South,184,5.0,14.0,66,0.00,,,0.00,meteohub,2013-05-17 18:29:00,
2013-05-17 13:35:00,88.2,76.6,29.77,SSW,207,2.0,14.0,69,0.00,,,0.00,meteohub,2013-05-17 18:35:00,
2013-05-17 13:40:00,88.9,76.1,29.77,SE,142,5.0,14.0,66,0.00,,,0.00,meteohub,2013-05-17 18:40:00,
2013-05-17 13:46:00,89.2,77.7,29.77,South,182,6.0,14.0,69,0.00,,,0.00,meteohub,2013-05-17 18:46:00,
2013-05-17 13:51:00,89.4,77.5,29.77,SSW,212,1.0,14.0,68,0.00,,,0.00,meteohub,2013-05-17 18:51:00,
2013-05-17 13:56:00,89.4,77.0,29.77,SSW,198,6.0,14.0,67,0.00,,,0.00,meteohub,2013-05-17 18:56:00,
2013-05-17 14:02:00,88.7,78.1,29.77,SSW,192,4.0,14.0,71,0.00,,,0.00,meteohub,2013-05-17 19:02:00,
2013-05-17 14:07:00,89.1,76.6,29.77,South,178,3.0,14.0,67,0.00,,,0.00,meteohub,2013-05-17 19:07:00,
2013-05-17 14:12:00,89.1,76.3,29.77,SE,133,3.0,10.0,66,0.00,,,0.00,meteohub,2013-05-17 19:12:00,
2013-05-17 14:17:00,89.1,76.3,29.76,SSE,153,2.0,10.0,66,0.00,,,0.00,meteohub,2013-05-17 19:17:00,
2013-05-17 14:22:00,89.8,76.8,29.76,South,182,6.0,10.0,66,0.00,,,0.00,meteohub,2013-05-17 19:22:00,
2013-05-17 14:27:00,90.0,77.0,29.76,SE,144,9.0,10.0,66,0.00,,,0.00,meteohub,2013-05-17 19:27:00,
2013-05-17 14:32:00,89.8,76.5,29.77,SSE,155,10.0,10.0,65,0.00,,,0.00,meteohub,2013-05-17 19:32:00,
2013-05-17 14:38:00,89.6,74.8,29.77,SE,146,6.0,10.0,62,0.00,,,0.00,meteohub,2013-05-17 19:38:00,
2013-05-17 14:43:00,90.0,76.6,29.76,SSE,153,5.0,10.0,65,0.00,,,0.00,meteohub,2013-05-17 19:43:00,
2013-05-17 14:48:00,90.0,76.1,29.76,SSE,168,8.0,14.0,64,0.00,,,0.00,meteohub,2013-05-17 19:48:00,
2013-05-17 14:54:00,90.1,76.8,29.76,SSE,159,4.0,14.0,65,0.00,,,0.00,meteohub,2013-05-17 19:54:00,
2013-05-17 14:59:00,90.3,75.9,29.76,SSE,164,0.0,14.0,63,0.00,,,0.00,meteohub,2013-05-17 19:59:00,
2013-05-17 15:04:00,90.9,77.5,29.76,SSE,148,6.0,14.0,65,0.00,,,0.00,meteohub,2013-05-17 20:04:00,
2013-05-17 15:10:00,90.3,77.0,29.76,South,186,11.0,14.0,65,0.00,,,0.00,meteohub,2013-05-17 20:10:00,
2013-05-17 15:15:00,90.5,78.4,29.76,SSE,164,7.0,14.0,68,0.00,,,0.00,meteohub,2013-05-17 20:15:00,
2013-05-17 15:20:00,90.1,75.4,29.75,SSE,153,4.0,14.0,62,0.00,,,0.00,meteohub,2013-05-17 20:20:00,
2013-05-17 15:26:00,90.7,77.7,29.75,South,180,7.0,14.0,66,0.00,,,0.00,meteohub,2013-05-17 20:26:00,
2013-05-17 15:31:00,90.9,76.1,29.75,SSE,163,10.0,14.0,62,0.00,,,0.00,meteohub,2013-05-17 20:31:00,
2013-05-17 15:36:00,90.7,78.3,29.75,South,183,9.0,14.0,67,0.00,,,0.00,meteohub,2013-05-17 20:36:00,
2013-05-17 15:42:00,90.7,76.3,29.75,SSE,164,4.0,14.0,63,0.00,,,0.00,meteohub,2013-05-17 20:42:00,
2013-05-17 15:47:00,90.1,76.3,29.75,SSE,167,8.0,14.0,64,0.00,,,0.00,meteohub,2013-05-17 20:47:00,
2013-05-17 15:52:00,89.8,76.5,29.75,SE,132,5.0,14.0,65,0.00,,,0.00,meteohub,2013-05-17 20:52:00,
2013-05-17 15:57:00,90.0,76.1,29.75,South,178,12.0,14.0,64,0.00,,,0.00,meteohub,2013-05-17 20:57:00,
2013-05-17 16:02:00,90.0,76.6,29.75,South,177,3.0,14.0,65,0.00,,,0.00,meteohub,2013-05-17 21:02:00,
2013-05-17 16:07:00,90.0,75.7,29.74,SE,136,8.0,14.0,63,0.00,,,0.00,meteohub,2013-05-17 21:07:00,
2013-05-17 16:13:00,90.0,76.1,29.74,South,181,6.0,14.0,64,0.00,,,0.00,meteohub,2013-05-17 21:13:00,
2013-05-17 16:18:00,89.8,75.9,29.75,SSW,200,7.0,14.0,64,0.00,,,0.00,meteohub,2013-05-17 21:18:00,
2013-05-17 16:23:00,90.0,76.1,29.74,SSE,165,2.0,14.0,64,0.00,,,0.00,meteohub,2013-05-17 21:23:00,
2013-05-17 16:29:00,90.3,75.9,29.74,South,173,5.0,13.0,63,0.00,,,0.00,meteohub,2013-05-17 21:29:00,
2013-05-17 16:34:00,90.0,76.1,29.74,South,188,11.0,13.0,64,0.00,,,0.00,meteohub,2013-05-17 21:34:00,
2013-05-17 16:39:00,89.8,76.5,29.74,SSW,192,7.0,13.0,65,0.00,,,0.00,meteohub,2013-05-17 21:39:00,
2013-05-17 16:45:00,89.8,75.6,29.74,SE,132,1.0,13.0,63,0.00,,,0.00,meteohub,2013-05-17 21:45:00,
2013-05-17 16:50:00,90.0,76.6,29.74,South,177,6.0,12.0,65,0.00,,,0.00,meteohub,2013-05-17 21:50:00,
2013-05-17 16:55:00,89.6,75.7,29.73,SE,141,4.0,12.0,64,0.00,,,0.00,meteohub,2013-05-17 21:55:00,
2013-05-17 17:01:00,89.8,75.9,29.73,South,190,6.0,12.0,64,0.00,,,0.00,meteohub,2013-05-17 22:01:00,
2013-05-17 17:06:00,90.1,76.8,29.73,SSE,148,8.0,12.0,65,0.00,,,0.00,meteohub,2013-05-17 22:06:00,
2013-05-17 17:11:00,90.5,75.7,29.73,SSE,154,7.0,12.0,62,0.00,,,0.00,meteohub,2013-05-17 22:11:00,
2013-05-17 17:17:00,90.1,74.8,29.73,SSW,198,4.0,12.0,61,0.00,,,0.00,meteohub,2013-05-17 22:17:00,
2013-05-17 17:22:00,89.6,75.4,29.73,South,179,3.0,12.0,63,0.00,,,0.00,meteohub,2013-05-17 22:22:00,
2013-05-17 17:27:00,89.4,76.6,29.73,SE,146,2.0,12.0,66,0.00,,,0.00,meteohub,2013-05-17 22:27:00,
2013-05-17 17:32:00,89.4,76.6,29.73,South,182,4.0,12.0,66,0.00,,,0.00,meteohub,2013-05-17 22:32:00,
2013-05-17 17:37:00,89.2,76.5,29.73,South,179,4.0,12.0,66,0.00,,,0.00,meteohub,2013-05-17 22:37:00,
2013-05-17 17:42:00,89.1,76.3,29.73,SSE,167,9.0,12.0,66,0.00,,,0.00,meteohub,2013-05-17 22:42:00,
2013-05-17 17:47:00,88.7,75.4,29.73,SSE,159,6.0,12.0,65,0.00,,,0.00,meteohub,2013-05-17 22:47:00,
2013-05-17 17:53:00,88.3,75.6,29.73,South,184,8.0,12.0,66,0.00,,,0.00,meteohub,2013-05-17 22:53:00,
2013-05-17 17:58:00,87.6,73.9,29.73,SSW,202,6.0,12.0,64,0.00,,,0.00,meteohub,2013-05-17 22:58:00,
2013-05-17 18:03:00,87.4,74.3,29.73,South,169,5.0,12.0,65,0.00,,,0.00,meteohub,2013-05-17 23:03:00,
2013-05-17 18:09:00,87.3,74.1,29.73,SSW,196,3.0,12.0,65,0.00,,,0.00,meteohub,2013-05-17 23:09:00,
2013-05-17 18:14:00,87.3,74.1,29.73,SSW,194,2.0,13.0,65,0.00,,,0.00,meteohub,2013-05-17 23:14:00,
2013-05-17 18:20:00,87.3,74.5,29.73,SSW,204,6.0,13.0,66,0.00,,,0.00,meteohub,2013-05-17 23:20:00,
2013-05-17 18:25:00,87.1,73.9,29.73,South,171,7.0,13.0,65,0.00,,,0.00,meteohub,2013-05-17 23:25:00,
2013-05-17 18:30:00,86.7,73.6,29.73,SSE,148,5.0,13.0,65,0.00,,,0.00,meteohub,2013-05-17 23:30:00,
2013-05-17 18:36:00,86.7,73.9,29.73,SSW,199,2.0,13.0,66,0.00,,,0.00,meteohub,2013-05-17 23:36:00,
2013-05-17 18:41:00,86.7,74.5,29.74,SSE,165,5.0,13.0,67,0.00,,,0.00,meteohub,2013-05-17 23:41:00,
2013-05-17 18:46:00,86.5,74.7,29.73,SSE,168,2.0,12.0,68,0.00,,,0.00,meteohub,2013-05-17 23:46:00,
2013-05-17 18:52:00,86.2,75.2,29.73,SSE,161,3.0,12.0,70,0.00,,,0.00,meteohub,2013-05-17 23:52:00,
2013-05-17 18:57:00,85.8,74.8,29.74,South,170,2.0,12.0,70,0.00,,,0.00,meteohub,2013-05-17 23:57:00,
2013-05-17 19:02:00,85.6,75.2,29.74,South,175,2.0,12.0,71,0.00,,,0.00,meteohub,2013-05-18 00:02:00,
2013-05-17 19:07:00,85.5,75.0,29.74,South,174,3.0,12.0,71,0.00,,,0.00,meteohub,2013-05-18 00:07:00,
2013-05-17 19:12:00,85.3,74.8,29.73,SE,142,3.0,12.0,71,0.00,,,0.00,meteohub,2013-05-18 00:12:00,
2013-05-17 19:17:00,84.9,74.5,29.74,South,169,4.0,12.0,71,0.00,,,0.00,meteohub,2013-05-18 00:17:00,
2013-05-17 19:22:00,84.7,74.3,29.74,South,173,3.0,9.0,71,0.00,,,0.00,meteohub,2013-05-18 00:22:00,
2013-05-17 19:28:00,84.7,74.3,29.74,SSW,194,3.0,9.0,71,0.00,,,0.00,meteohub,2013-05-18 00:28:00,
2013-05-17 19:33:00,84.6,74.1,29.74,SE,142,2.0,9.0,71,0.00,,,0.00,meteohub,2013-05-18 00:33:00,
2013-05-17 19:38:00,84.4,74.3,29.74,SSE,168,2.0,9.0,72,0.00,,,0.00,meteohub,2013-05-18 00:38:00,
2013-05-17 19:44:00,84.0,73.9,29.75,SSW,198,5.0,9.0,72,0.00,,,0.00,meteohub,2013-05-18 00:44:00,
2013-05-17 19:49:00,84.0,73.9,29.75,SSE,161,3.0,9.0,72,0.00,,,0.00,meteohub,2013-05-18 00:49:00,
2013-05-17 19:55:00,83.8,74.3,29.75,SSE,166,2.0,8.0,73,0.00,,,0.00,meteohub,2013-05-18 00:55:00,
2013-05-17 20:00:00,83.8,74.3,29.75,SSE,159,2.0,8.0,73,0.00,,,0.00,meteohub,2013-05-18 01:00:00,
2013-05-17 20:05:00,83.7,74.1,29.75,South,175,2.0,8.0,73,0.00,,,0.00,meteohub,2013-05-18 01:05:00,
2013-05-17 20:11:00,83.5,74.3,29.76,South,184,4.0,8.0,74,0.00,,,0.00,meteohub,2013-05-18 01:11:00,
2013-05-17 20:16:00,83.3,74.1,29.76,South,171,2.0,8.0,74,0.00,,,0.00,meteohub,2013-05-18 01:16:00,
2013-05-17 20:21:00,83.3,74.5,29.78,SSW,210,0.0,8.0,75,0.00,,,0.00,meteohub,2013-05-18 01:21:00,
2013-05-17 20:27:00,83.5,74.3,29.78,WSW,240,0.0,6.0,74,0.00,,,0.00,meteohub,2013-05-18 01:27:00,
2013-05-17 20:32:00,83.3,74.5,29.78,SSW,200,2.0,6.0,75,0.00,,,0.00,meteohub,2013-05-18 01:32:00,
2013-05-17 20:37:00,83.1,74.3,29.78,SSW,200,0.0,6.0,75,0.00,,,0.00,meteohub,2013-05-18 01:37:00,
2013-05-17 20:42:00,82.9,74.7,29.78,South,183,0.0,6.0,76,0.00,,,0.00,meteohub,2013-05-18 01:42:00,
2013-05-17 20:47:00,82.9,75.0,29.77,South,173,3.0,6.0,77,0.00,,,0.00,meteohub,2013-05-18 01:47:00,
2013-05-17 20:52:00,82.9,74.7,29.76,South,184,5.0,6.0,76,0.00,,,0.00,meteohub,2013-05-18 01:52:00,
2013-05-17 20:57:00,82.9,74.7,29.75,SSW,192,6.0,6.0,76,0.00,,,0.00,meteohub,2013-05-18 01:57:00,
2013-05-17 21:02:00,83.1,74.8,29.75,South,173,8.0,8.0,76,0.00,,,0.00,meteohub,2013-05-18 02:02:00,
2013-05-17 21:07:00,83.3,74.5,29.74,SSW,202,7.0,7.0,75,0.00,,,0.00,meteohub,2013-05-18 02:07:00,
2013-05-17 21:12:00,83.3,74.5,29.75,South,182,9.0,9.0,75,0.00,,,0.00,meteohub,2013-05-18 02:12:00,
2013-05-17 21:17:00,83.3,74.5,29.75,SSE,162,11.0,18.0,75,0.00,,,0.00,meteohub,2013-05-18 02:17:00,
2013-05-17 21:22:00,83.1,74.3,29.77,South,191,7.0,18.0,75,0.00,,,0.00,meteohub,2013-05-18 02:22:00,
2013-05-17 21:28:00,83.1,74.8,29.78,SW,217,8.0,18.0,76,0.00,,,0.00,meteohub,2013-05-18 02:28:00,
2013-05-17 21:33:00,82.9,74.7,29.78,SSW,201,8.0,18.0,76,0.00,,,0.00,meteohub,2013-05-18 02:33:00,
2013-05-17 21:38:00,82.9,74.7,29.78,South,190,3.0,18.0,76,0.00,,,0.00,meteohub,2013-05-18 02:38:00,
2013-05-17 21:44:00,83.1,74.8,29.77,SSW,195,5.0,18.0,76,0.00,,,0.00,meteohub,2013-05-18 02:44:00,
2013-05-17 21:49:00,83.1,74.8,29.76,South,173,6.0,12.0,76,0.00,,,0.00,meteohub,2013-05-18 02:49:00,
2013-05-17 21:54:00,82.9,74.7,29.75,South,185,7.0,12.0,76,0.00,,,0.00,meteohub,2013-05-18 02:54:00,
2013-05-17 21:59:00,83.1,74.3,29.75,South,177,3.0,12.0,75,0.00,,,0.00,meteohub,2013-05-18 02:59:00,
2013-05-17 22:05:00,82.9,74.7,29.75,SE,146,6.0,14.0,76,0.00,,,0.00,meteohub,2013-05-18 03:05:00,
2013-05-17 22:10:00,82.8,74.5,29.73,SSE,157,3.0,14.0,76,0.00,,,0.00,meteohub,2013-05-18 03:10:00,
2013-05-17 22:15:00,82.6,74.7,29.75,SSW,192,10.0,14.0,77,0.00,,,0.00,meteohub,2013-05-18 03:15:00,
2013-05-17 22:16:00,82.4,74.5,29.74,South,173,9.0,14.0,77,0.00,,,0.00,meteohub,2013-05-18 03:16:00,
2013-05-17 22:22:00,81.9,74.3,29.73,SE,142,7.0,16.0,78,0.00,,,0.00,meteohub,2013-05-18 03:22:00,
2013-05-17 22:27:00,82.0,74.5,29.74,SSW,198,5.0,16.0,78,0.00,,,0.00,meteohub,2013-05-18 03:27:00,
2013-05-17 22:32:00,82.6,74.7,29.75,SE,140,11.0,16.0,77,0.00,,,0.00,meteohub,2013-05-18 03:32:00,
2013-05-17 22:37:00,82.9,74.7,29.75,South,186,6.0,16.0,76,0.00,,,0.00,meteohub,2013-05-18 03:37:00,
2013-05-17 22:42:00,82.8,74.5,29.75,SSW,198,10.0,16.0,76,0.00,,,0.00,meteohub,2013-05-18 03:42:00,
2013-05-17 22:48:00,82.8,74.8,29.75,SSE,155,7.0,17.0,77,0.00,,,0.00,meteohub,2013-05-18 03:48:00,
2013-05-17 22:53:00,82.6,74.7,29.75,SSE,167,3.0,17.0,77,0.00,,,0.00,meteohub,2013-05-18 03:53:00,
2013-05-17 22:58:00,82.6,74.7,29.75,South,190,6.0,17.0,77,0.00,,,0.00,meteohub,2013-05-18 03:58:00,
2013-05-17 23:01:00,82.4,74.5,29.75,SSE,152,4.0,17.0,77,0.00,,,0.00,meteohub,2013-05-18 04:01:00,
2013-05-17 23:02:00,82.2,74.3,29.75,SSE,161,11.0,14.0,77,0.00,,,0.00,meteohub,2013-05-18 04:02:00,
2013-05-17 23:03:00,82.2,74.3,29.76,South,175,11.0,14.0,77,0.00,,,0.00,meteohub,2013-05-18 04:03:00,
2013-05-17 23:08:00,82.0,74.5,29.75,South,190,12.0,14.0,78,0.00,,,0.00,meteohub,2013-05-18 04:08:00,
2013-05-17 23:13:00,81.9,74.3,29.76,SW,218,6.0,14.0,78,0.00,,,0.00,meteohub,2013-05-18 04:13:00,
2013-05-17 23:19:00,81.9,74.7,29.76,South,191,8.0,14.0,79,0.00,,,0.00,meteohub,2013-05-18 04:19:00,
2013-05-17 23:24:00,81.7,74.5,29.75,South,169,11.0,14.0,79,0.00,,,0.00,meteohub,2013-05-18 04:24:00,
2013-05-17 23:29:00,81.3,74.1,29.75,South,179,8.0,14.0,79,0.00,,,0.00,meteohub,2013-05-18 04:29:00,
2013-05-17 23:35:00,81.1,74.3,29.75,SSW,198,8.0,14.0,80,0.00,,,0.00,meteohub,2013-05-18 04:35:00,
2013-05-17 23:40:00,81.1,74.3,29.76,SSE,151,9.0,14.0,80,0.00,,,0.00,meteohub,2013-05-18 04:40:00,
2013-05-17 23:45:00,81.3,74.1,29.76,SSW,206,12.0,16.0,79,0.00,,,0.00,meteohub,2013-05-18 04:45:00,
2013-05-17 23:50:00,81.1,74.3,29.77,SSW,204,5.0,16.0,80,0.00,,,0.00,meteohub,2013-05-18 04:50:00,
2013-05-17 23:56:00,81.1,74.3,29.77,SSW,209,0.0,16.0,80,0.00,,,0.00,meteohub,2013-05-18 04:56:00,